Weather History for Rogers, AR

Change the Weather History Date:

Tuesday, June 10, 2014

  Actual Average Record
Temperature  
Mean Temperature 66 °F -  
Max Temperature 73 °F 77 °F 91 °F (2013)
Min Temperature 60 °F 60 °F 33 °F (2008)
Cooling Degree Days 2    
Growing Degree Days 16 (Base 50)    
Moisture  
Dew Point 61 °F    
Average Humidity 87    
Maximum Humidity 97    
Minimum Humidity 65    
Precipitation  
Precipitation 0.13 in - - ()
Sea Level Pressure  
Sea Level Pressure 29.75 in    
Wind  
Wind Speed 5 mph (NW)    
Max Wind Speed 21 mph    
Max Gust Speed 30 mph    
Visibility 10 miles    
Events Rain , Thunderstorm    
Averages and records for this station are not official NWS values.
T = Trace of Precipitation, MM = Missing Value Source: NWS Daily Summary

Daily Weather History Graph

Daily Weather History Graph

Search for Another Location

Airport:

Trip Planner

Search our weather history database for the weather conditions in past years. The results will help you decide how hot, cold, wet, or windy it might be!

Date:

Astronomy

Jun. 10, 2014 Rise Set
Actual Time 5:58 AM CDT 8:33 PM CDT
Civil Twilight 5:27 AM CDT 9:04 PM CDT
Nautical Twilight 4:50 AM CDT 9:41 PM CDT
Astronomical Twilight 4:08 AM CDT 10:23 PM CDT
Moon 6:03 PM CDT (6/10) 3:59 AM CDT (6/10)
Length of Visible Light 15h 36m
Length of Day
14h 35m
Waxing Gibbous, 92% of the Moon is Illuminated
Jun 10
Waxing Gibbous
Jun 12
Full
Jun 19
Last Quarter
Jun 27
New
Jul 5
First Quarter

Hourly Weather History & Observations

Time (CDT) Temp. Dew Point Humidity Pressure Visibility Wind Dir Wind Speed Gust Speed Precip Events Conditions
12:57 AM 63.0 °F 61.0 °F 93% 29.70 in 10.0 mi ESE 4.6 mph - 0.00 in   Scattered Clouds
1:57 AM 62.1 °F 60.1 °F 93% 29.70 in 10.0 mi Calm Calm - N/A   Clear
2:57 AM 61.0 °F 60.1 °F 97% 29.68 in 10.0 mi SE 5.8 mph - N/A   Clear
4:57 AM 63.0 °F 61.0 °F 93% 29.67 in 10.0 mi Calm Calm - 0.00 in Rain Light Rain
5:12 AM 62.6 °F 60.8 °F 94% 29.71 in 10.0 mi Calm Calm - 0.01 in Thunderstorm Overcast
5:28 AM 62.6 °F 60.8 °F 94% 29.70 in 10.0 mi Calm Calm - 0.01 in Thunderstorm Thunderstorm
5:44 AM 62.6 °F 60.8 °F 94% 29.71 in 10.0 mi WSW 3.5 mph - 0.01 in Thunderstorm Overcast
5:57 AM 63.0 °F 61.0 °F 93% 29.68 in 10.0 mi Calm Calm - 0.01 in Thunderstorm Thunderstorm
6:03 AM 62.6 °F 60.8 °F 94% 29.71 in 10.0 mi Calm Calm - N/A Thunderstorm Thunderstorm
6:10 AM 62.6 °F 60.8 °F 94% 29.71 in 10.0 mi South 3.5 mph - N/A   Overcast
6:38 AM 62.6 °F 60.8 °F 94% 29.72 in 10.0 mi West 4.6 mph - N/A   Overcast
6:57 AM 62.6 °F 60.8 °F 94% 29.72 in 10.0 mi WNW 5.8 mph - N/A   Overcast
6:59 AM 63.0 °F 61.0 °F 93% 29.69 in 10.0 mi NW 5.8 mph - N/A   Overcast
7:02 AM 62.6 °F 60.8 °F 94% 29.72 in 10.0 mi WNW 4.6 mph - N/A   Overcast
7:10 AM 62.6 °F 60.8 °F 94% 29.72 in 10.0 mi Calm Calm - N/A   Overcast
7:57 AM 62.1 °F 60.1 °F 93% 29.70 in 10.0 mi NNE 5.8 mph - 0.09 in Rain Light Rain
8:57 AM 64.4 °F 62.6 °F 94% 29.74 in 10.0 mi ESE 3.5 mph - 0.00 in   Overcast
8:59 AM 64.0 °F 61.0 °F 90% 29.71 in 10.0 mi East 3.5 mph - 0.00 in   Overcast
9:37 AM 64.4 °F 60.8 °F 88% 29.75 in 10.0 mi North 3.5 mph - N/A   Overcast
9:57 AM 64.0 °F 61.0 °F 90% 29.73 in 10.0 mi NNW 5.8 mph - N/A   Overcast
10:38 AM 64.4 °F 60.8 °F 88% 29.76 in 7.0 mi North 3.5 mph - 0.02 in Rain Light Rain
10:57 AM 64.0 °F 61.0 °F 90% 29.74 in 10.0 mi NNE 4.6 mph - 0.03 in Rain Light Rain
11:12 AM 64.4 °F 60.8 °F 88% 29.77 in 10.0 mi NNE 4.6 mph - N/A   Overcast
11:34 AM 66.2 °F 60.8 °F 83% 29.76 in 10.0 mi Calm Calm - N/A   Overcast
11:45 AM 66.2 °F 60.8 °F 83% 29.76 in 10.0 mi Calm Calm - N/A   Overcast
11:57 AM 68.0 °F 62.6 °F 83% 29.76 in 10.0 mi NNE 3.5 mph - N/A   Mostly Cloudy
11:59 AM 68.0 °F 63.0 °F 84% 29.73 in 10.0 mi Calm Calm - N/A   Mostly Cloudy
12:04 PM 69.8 °F 62.6 °F 78% 29.76 in 10.0 mi Calm Calm - N/A   Mostly Cloudy
12:13 PM 69.8 °F 62.6 °F 78% 29.76 in 10.0 mi NW 3.5 mph - N/A   Mostly Cloudy
12:37 PM 69.8 °F 62.6 °F 78% 29.76 in 10.0 mi WNW 5.8 mph - N/A   Overcast
1:57 PM 71.1 °F 63.0 °F 75% 29.72 in 10.0 mi West 11.5 mph - N/A   Mostly Cloudy
2:32 PM 71.6 °F 62.6 °F 73% 29.75 in 10.0 mi NW 8.1 mph - N/A   Mostly Cloudy
2:49 PM 71.6 °F 62.6 °F 73% 29.75 in 10.0 mi NW 8.1 mph - 0.00 in   Overcast
2:57 PM 73.4 °F 60.8 °F 65% 29.74 in 10.0 mi WNW 13.8 mph 19.6 mph 0.00 in   Mostly Cloudy
3:13 PM 73.4 °F 62.6 °F 69% 29.74 in 10.0 mi WNW 13.8 mph 24.2 mph N/A   Mostly Cloudy
3:57 PM 71.1 °F 61.0 °F 70% 29.73 in 10.0 mi WNW 20.7 mph 29.9 mph N/A   Mostly Cloudy
4:57 PM 66.0 °F 59.0 °F 78% 29.75 in 10.0 mi WNW 16.1 mph 23.0 mph N/A   Overcast
5:07 PM 66.2 °F 59.0 °F 78% 29.78 in 10.0 mi WNW 10.4 mph 19.6 mph N/A   Overcast
5:57 PM 66.0 °F 59.0 °F 78% 29.75 in 10.0 mi WNW 10.4 mph - N/A   Overcast
6:29 PM 64.4 °F 59.0 °F 83% 29.78 in 10.0 mi WNW 12.7 mph - N/A   Overcast
6:37 PM 64.4 °F 59.0 °F 83% 29.78 in 10.0 mi WNW 9.2 mph - N/A   Overcast
6:57 PM 64.0 °F 59.0 °F 84% 29.76 in 10.0 mi WNW 9.2 mph - N/A   Overcast
7:10 PM 64.4 °F 59.0 °F 83% 29.79 in 10.0 mi WNW 9.2 mph - N/A   Overcast
7:31 PM 62.6 °F 59.0 °F 88% 29.79 in 10.0 mi WNW 10.4 mph - N/A   Overcast
7:57 PM 62.1 °F 59.0 °F 90% 29.78 in 10.0 mi WNW 8.1 mph - N/A   Overcast
8:57 PM 62.1 °F 60.1 °F 93% 29.78 in 10.0 mi NNW 6.9 mph - N/A   Overcast
9:11 PM 62.6 °F 60.8 °F 94% 29.81 in 10.0 mi NW 5.8 mph - N/A   Overcast
9:44 PM 62.6 °F 60.8 °F 94% 29.82 in 10.0 mi NNW 5.8 mph - N/A   Overcast
9:52 PM 62.6 °F 59.0 °F 88% 29.82 in 10.0 mi NW 6.9 mph - N/A   Mostly Cloudy
9:57 PM 62.6 °F 59.0 °F 88% 29.82 in 10.0 mi NW 8.1 mph - N/A   Mostly Cloudy
9:59 PM 62.1 °F 59.0 °F 90% 29.80 in 10.0 mi NW 8.1 mph - N/A   Mostly Cloudy
10:05 PM 62.6 °F 59.0 °F 88% 29.83 in 10.0 mi NNW 6.9 mph - N/A   Mostly Cloudy
10:57 PM 62.1 °F 59.0 °F 90% 29.81 in 10.0 mi WNW 4.6 mph - N/A   Overcast
11:01 PM 62.6 °F 59.0 °F 88% 29.83 in 10.0 mi NW 4.6 mph - N/A   Overcast
11:53 PM 60.8 °F 59.0 °F 94% 29.83 in 5.0 mi WNW 4.6 mph - N/A   Mostly Cloudy
11:57 PM 60.1 °F 59.0 °F 96% 29.81 in 5.0 mi WNW 3.5 mph - N/A   Mostly Cloudy